Location: Newark
(52.4787°S, 179.0532°W)
Time: 02:33:10
(UTC+00:00)

Vanguard 1 - Visible Passes

Search period start: 17 November 2019 00:00
Search period end: 27 November 2019 00:00
Orbit: 652 x 3831 km, 34.2° (Epoch: 16 November)

Date Brightness Start Highest point End Pass type
(mag) Time Alt. Az. Time Alt. Az. Time Alt. Az.
17 Nov 13.1 08:08:44 10° NE 08:13:32 12° ENE 08:19:03 10° ENE visible
17 Nov 12.8 10:19:55 10° NNW 10:32:51 33° NNE 10:50:54 10° E visible
17 Nov 12.9 12:38:28 10° WNW 12:55:16 45° N 13:16:24 10° ENE visible
17 Nov 13.2 15:00:15 10° W 15:18:58 40° NNW 15:38:25 10° NE visible
18 Nov 13.0 08:25:40 10° NNE 08:33:22 17° NE 08:43:10 10° E visible
18 Nov 12.8 10:39:53 10° NW 10:53:17 37° NNE 11:12:17 10° E visible
18 Nov 12.9 12:59:08 10° WNW 13:16:05 45° N 13:37:13 10° ENE visible
19 Nov 12.9 08:44:13 10° N 08:53:20 21° NE 09:05:46 10° E visible
19 Nov 12.7 11:00:05 10° NW 11:13:50 40° NNE 11:33:32 10° ENE visible
19 Nov 13.0 13:19:54 10° WNW 13:36:55 44° N 13:57:51 10° NE visible
20 Nov 12.7 09:03:27 10° N 09:13:26 26° NE 09:27:46 10° E visible
20 Nov 12.7 11:20:27 10° NW 11:34:30 42° NNE 11:54:39 10° ENE visible
20 Nov 13.0 13:40:47 10° WNW 13:57:44 42° NNW 14:18:18 10° NE visible
21 Nov 12.6 09:23:06 10° NNW 09:33:42 30° NNE 09:49:25 10° E visible
21 Nov 12.7 11:40:57 10° WNW 11:55:14 43° N 12:15:38 10° ENE visible
21 Nov 13.1 14:01:47 10° WNW 14:18:30 39° NNW 14:38:31 10° NE visible
22 Nov 12.5 09:43:03 10° NNW 09:54:04 34° NNE 10:10:51 10° E visible
22 Nov 12.7 12:01:34 10° WNW 12:16:01 43° N 12:36:28 10° ENE visible
22 Nov 13.1 14:22:54 10° W 14:39:13 35° NNW 14:58:26 10° NNE visible
23 Nov 12.5 10:03:14 10° NW 10:14:35 37° NNE 10:32:08 10° ENE visible
23 Nov 12.8 12:22:18 10° WNW 12:36:51 42° N 12:57:08 10° NE visible
23 Nov 13.2 14:44:14 10° W 14:59:51 30° NNW 15:17:59 10° NNE visible
24 Nov 12.5 10:23:34 10° NW 10:35:11 39° NNE 10:53:16 10° ENE visible
24 Nov 12.8 12:43:08 10° WNW 12:57:39 39° NNW 13:17:36 10° NE visible
25 Nov 12.4 08:26:49 10° NNW 08:35:13 26° NNE 08:47:52 10° E visible
25 Nov 12.5 10:44:03 10° NW 10:55:52 40° N 11:14:17 10° ENE visible
25 Nov 12.9 13:04:05 10° WNW 13:18:27 36° NNW 13:37:48 10° NE visible
26 Nov 12.3 08:46:45 10° NNW 08:55:34 30° NNE 09:09:20 10° ENE visible
26 Nov 12.5 11:04:39 10° WNW 11:16:37 39° N 11:35:08 10° ENE visible
26 Nov 13.0 13:25:12 10° WNW 13:39:13 32° NNW 13:57:40 10° NNE visible
